• In Hungary
  • List of Countries
  • For 7 days
  • Water Temperature
  • Satellite Maps
  • Weather Map
  • News
  • Weather Widgets
  • user-avatar
    Login

    Hourly Weather Buz'ke

    Today, 21 January, Sunday

    Time Temperature Precipitation Wind Pressure Humidity
    00:00 -3°C° 0.2 mm 4 mps 750 mmHg 90%
    01:00 -3°C° 0.2 mm 4 mps 750 mmHg 89%
    02:00 -3°C° 0 mm 4 mps 749 mmHg 87%
    03:00 -3°C° 0.2 mm 4 mps 750 mmHg 86%
    04:00 -4°C° 0.2 mm 4 mps 750 mmHg 85%
    05:00 -4°C° 0.2 mm 4 mps 750 mmHg 84%
    06:00 -4°C° 0 mm 4 mps 750 mmHg 84%
    07:00 -5°C° 0 mm 3 mps 751 mmHg 85%
    08:00 -6°C° 0 mm 3 mps 751 mmHg 86%
    09:00 -3°C° 0 mm 2 mps 752 mmHg 82%
    10:00 -2°C° 0 mm 2 mps 753 mmHg 79%
    11:00 -1°C° 0 mm 2 mps 753 mmHg 75%
    12:00 -1°C° 0 mm 2 mps 753 mmHg 73%
    13:00 +2°C° 0 mm 1 mps 753 mmHg 72%
    14:00 +2°C° 0 mm 1 mps 753 mmHg 70%
    15:00 +1°C° 0 mm 1 mps 753 mmHg 73%
    16:00 +1°C° 0 mm 1 mps 753 mmHg 76%
    17:00 0°C° 0 mm 1 mps 753 mmHg 79%
    18:00 -2°C° 0 mm 2 mps 754 mmHg 80%
    19:00 -2°C° 0 mm 2 mps 754 mmHg 82%
    20:00 -2°C° 0 mm 3 mps 754 mmHg 83%
    21:00 -4°C° 0 mm 3 mps 753 mmHg 83%
    22:00 -4°C° 0 mm 4 mps 753 mmHg 82%
    23:00 -4°C° 0 mm 4 mps 753 mmHg 82%

    Tomorrow, 22 January, Monday

    Time Temperature Precipitation Wind Pressure Humidity
    00:00 -4°C° 0 mm 4 mps 753 mmHg 81%
    01:00 -5°C° 0 mm 5 mps 753 mmHg 80%
    02:00 -5°C° 0 mm 5 mps 752 mmHg 79%
    03:00 -5°C° 0 mm 5 mps 752 mmHg 78%
    04:00 -5°C° 0 mm 6 mps 752 mmHg 77%
    05:00 -4°C° 0 mm 6 mps 752 mmHg 76%
    06:00 -5°C° 0.1 mm 6 mps 752 mmHg 76%
    07:00 -6°C° 0.1 mm 7 mps 752 mmHg 76%
    08:00 -6°C° 0.1 mm 7 mps 752 mmHg 77%
    09:00 -4°C° 0.1 mm 7 mps 751 mmHg 78%
    10:00 -4°C° 0.1 mm 7 mps 751 mmHg 79%
    11:00 -5°C° 0.1 mm 8 mps 751 mmHg 80%
    12:00 -5°C° 0.3 mm 8 mps 751 mmHg 81%
    13:00 -5°C° 0.3 mm 9 mps 751 mmHg 82%
    14:00 -5°C° 0.3 mm 9 mps 750 mmHg 83%
    15:00 -5°C° 0.4 mm 9 mps 751 mmHg 84%
    16:00 -5°C° 0.4 mm 9 mps 751 mmHg 85%
    17:00 -6°C° 0.4 mm 9 mps 751 mmHg 87%
    18:00 -6°C° 0.3 mm 9 mps 751 mmHg 87%
    19:00 -6°C° 0.3 mm 9 mps 751 mmHg 87%
    20:00 -6°C° 0.3 mm 9 mps 752 mmHg 87%
    21:00 -8°C° 0.3 mm 9 mps 752 mmHg 87%
    22:00 -8°C° 0.3 mm 9 mps 752 mmHg 87%
    23:00 -8°C° 0.3 mm 9 mps 752 mmHg 87%

    Day after tomorrow, 23 January, Tuesday

    Time Temperature Precipitation Wind Pressure Humidity
    00:00 -8°C° 0.3 mm 9 mps 753 mmHg 87%
    01:00 -8°C° 0.3 mm 9 mps 753 mmHg 87%
    02:00 -8°C° 0.3 mm 9 mps 753 mmHg 87%
    03:00 -8°C° 0.1 mm 9 mps 753 mmHg 86%
    04:00 -9°C° 0.1 mm 9 mps 754 mmHg 86%
    05:00 -9°C° 0.1 mm 9 mps 754 mmHg 85%
    06:00 -9°C° 0.1 mm 9 mps 754 mmHg 85%
    07:00 -9°C° 0.1 mm 9 mps 755 mmHg 85%
    08:00 -9°C° 0.1 mm 9 mps 756 mmHg 84%
    09:00 -9°C° 0 mm 9 mps 756 mmHg 83%
    10:00 -9°C° 0 mm 9 mps 756 mmHg 82%
    11:00 -9°C° 0 mm 10 mps 757 mmHg 81%
    12:00 -9°C° 0 mm 10 mps 757 mmHg 80%
    13:00 -9°C° 0 mm 9 mps 757 mmHg 80%
    14:00 -9°C° 0 mm 9 mps 758 mmHg 79%
    15:00 -10°C° 0 mm 9 mps 758 mmHg 79%
    16:00 -10°C° 0 mm 9 mps 759 mmHg 80%
    17:00 -11°C° 0 mm 8 mps 759 mmHg 81%
    18:00 -11°C° 0 mm 8 mps 760 mmHg 81%
    19:00 -11°C° 0 mm 8 mps 760 mmHg 81%
    20:00 -12°C° 0 mm 8 mps 761 mmHg 81%
    21:00 -12°C° 0 mm 8 mps 761 mmHg 81%
    22:00 -12°C° 0 mm 8 mps 761 mmHg 81%
    23:00 -12°C° 0 mm 7 mps 762 mmHg 81%

    24 January, Wednesday

    Time Temperature Precipitation Wind Pressure Humidity
    00:00 -12°C° 0 mm 7 mps 762 mmHg 81%
    01:00 -12°C° 0 mm 7 mps 762 mmHg 81%
    02:00 -12°C° 0 mm 7 mps 763 mmHg 81%
    03:00 -12°C° 0 mm 7 mps 763 mmHg 81%
    04:00 -12°C° 0 mm 7 mps 764 mmHg 81%
    05:00 -13°C° 0 mm 7 mps 764 mmHg 81%
    06:00 -13°C° 0 mm 7 mps 764 mmHg 81%
    07:00 -13°C° 0 mm 7 mps 765 mmHg 81%
    08:00 -13°C° 0 mm 7 mps 766 mmHg 81%
    09:00 -12°C° 0 mm 7 mps 766 mmHg 79%
    10:00 -11°C° 0 mm 7 mps 766 mmHg 77%
    11:00 -9°C° 0 mm 7 mps 766 mmHg 75%
    12:00 -9°C° 0 mm 7 mps 766 mmHg 75%
    13:00 -8°C° 0 mm 7 mps 766 mmHg 75%
    14:00 -8°C° 0 mm 7 mps 766 mmHg 75%
    15:00 -9°C° 0 mm 6 mps 766 mmHg 78%
    16:00 -10°C° 0 mm 6 mps 767 mmHg 81%
    17:00 -10°C° 0 mm 5 mps 767 mmHg 84%
    18:00 -11°C° 0 mm 5 mps 767 mmHg 85%
    19:00 -11°C° 0 mm 5 mps 767 mmHg 86%
    20:00 -12°C° 0 mm 5 mps 767 mmHg 87%
    21:00 -12°C° 0 mm 5 mps 767 mmHg 87%
    22:00 -12°C° 0 mm 5 mps 767 mmHg 88%
    23:00 -12°C° 0 mm 5 mps 767 mmHg 89%

    25 January, Thursday

    Time Temperature Precipitation Wind Pressure Humidity
    00:00 -12°C° 0 mm 5 mps 767 mmHg 89%
    01:00 -13°C° 0 mm 5 mps 767 mmHg 89%
    02:00 -13°C° 0 mm 5 mps 767 mmHg 89%
    03:00 -13°C° 0 mm 5 mps 766 mmHg 89%
    04:00 -13°C° 0 mm 5 mps 766 mmHg 89%
    05:00 -13°C° 0 mm 5 mps 766 mmHg 88%
    06:00 -13°C° 0 mm 5 mps 766 mmHg 88%
    07:00 -12°C° 0 mm 5 mps 766 mmHg 88%
    08:00 -12°C° 0 mm 5 mps 766 mmHg 88%
    09:00 -11°C° 0 mm 5 mps 766 mmHg 87%
    10:00 -11°C° 0 mm 5 mps 766 mmHg 86%
    11:00 -10°C° 0 mm 5 mps 766 mmHg 85%
    12:00 -8°C° 0 mm 4 mps 766 mmHg 85%
    13:00 -8°C° 0 mm 4 mps 765 mmHg 86%
    14:00 -7°C° 0 mm 4 mps 765 mmHg 86%
    15:00 -7°C° 0 mm 4 mps 765 mmHg 87%
    16:00 -7°C° 0 mm 4 mps 765 mmHg 89%
    17:00 -7°C° 0 mm 4 mps 765 mmHg 90%
    18:00 -7°C° 0 mm 4 mps 765 mmHg 91%
    19:00 -6°C° 0 mm 3 mps 765 mmHg 92%
    20:00 -6°C° 0 mm 3 mps 765 mmHg 93%
    21:00 -5°C° 0 mm 3 mps 766 mmHg 93%
    22:00 -5°C° 0 mm 3 mps 766 mmHg 94%
    23:00 -5°C° 0 mm 3 mps 766 mmHg 94%

    26 January, Friday

    Time Temperature Precipitation Wind Pressure Humidity
    00:00 -5°C° 0 mm 3 mps 766 mmHg 94%
    01:00 -5°C° 0 mm 3 mps 766 mmHg 94%
    02:00 -4°C° 0 mm 3 mps 766 mmHg 94%
    03:00 -4°C° 0 mm 4 mps 765 mmHg 94%
    04:00 -5°C° 0 mm 4 mps 765 mmHg 94%
    05:00 -5°C° 0 mm 4 mps 765 mmHg 94%
    06:00 -5°C° 0 mm 4 mps 765 mmHg 94%
    07:00 -7°C° 0 mm 4 mps 765 mmHg 93%
    08:00 -8°C° 0 mm 4 mps 766 mmHg 93%
    09:00 -8°C° 0 mm 4 mps 766 mmHg 92%
    10:00 -8°C° 0 mm 4 mps 766 mmHg 91%
    11:00 -8°C° 0 mm 4 mps 766 mmHg 89%
    12:00 -6°C° 0 mm 3 mps 766 mmHg 88%
    13:00 -6°C° 0 mm 3 mps 765 mmHg 87%
    14:00 -6°C° 0 mm 3 mps 765 mmHg 86%
    15:00 -6°C° 0 mm 3 mps 765 mmHg 87%
    16:00 -7°C° 0 mm 3 mps 765 mmHg 88%
    17:00 -7°C° 0 mm 3 mps 765 mmHg 89%
    18:00 -7°C° 0 mm 3 mps 765 mmHg 89%
    19:00 -7°C° 0 mm 3 mps 765 mmHg 89%
    20:00 -8°C° 0 mm 4 mps 766 mmHg 89%
    21:00 -7°C° 0 mm 3 mps 766 mmHg 89%
    22:00 -7°C° 0 mm 3 mps 766 mmHg 89%
    23:00 -7°C° 0 mm 3 mps 766 mmHg 88%
    Show more